Flag for Brazil Weather past 2 weeks in Pelotas, Rio Grande do Sul, Brazil

Now
61 °F

Partly sunny.


Feels Like: 61 °F
Forecast: 48 / 67 °F
Wind: 8 mph from West

Location: Pelotas Airport

Current Time: Sep 16, 2014 at 12:46:19 PM

Latest Report: Sep 16, 2014 at 12:00 PM


Visibility: N/A

Pressure: 30.09 "Hg

Humidity: 68%

Dew point: 50 °F

Location of PelotasLocation

Historic Weather in Pelotas — Graph

°F

Pelotas temperature yesterday

Maximum temperature yesterday: 72 °F (at 11:00 AM)
Minimum temperature yesterday: 59 °F (at 11:00 PM)
Average temperature yesterday: 65 °F

Past Weeks' High & Low Weather Summary

 TemperatureHumidityPressure
High88 °F (Sep 9, 2:00 PM)100% (Sep 1, 9:00 PM)30.27 "Hg (Sep 1, 9:00 PM)
Low48 °F (Sep 8, 5:00 AM)40% (Sep 7, 12:00 PM)29.56 "Hg (Sep 9, 8:00 PM)
Average62 °F86%30.01 "Hg
* Reported Sep 1 11:00 AM — Sep 16 11:00 AM, Pelotas, Weather by CustomWeather, © 2014

Note: Actual official high and low records may vary slightly from our data, if they occured in-between our weather recording intervals... More about our weather records

Advertising

Pelotas weather history for previous 24 hours

 ConditionsComfort  
Time TempWeatherWind HumidityBarometerVisibility
11:00 AM
Sep 16
61 °FOvercast.6 mph77%30.09 "HgN/A
10:00 AM59 °FMore clouds than sun.9 mph82%30.12 "HgN/A
9:00 AM57 °FOvercast.7 mph88%30.09 "HgN/A
8:00 AM55 °FPartly sunny.2 mph94%30.07 "HgN/A
7:00 AM55 °FPartly sunny.3 mph88%30.07 "HgN/A
6:00 AM55 °FPartly sunny.8 mph88%30.04 "HgN/A
5:00 AM55 °FPassing clouds.8 mph88%30.01 "HgN/A
4:00 AM55 °FPassing clouds.9 mph94%30.01 "HgN/A
3:00 AM57 °FPassing clouds.7 mph88%30.01 "HgN/A
2:00 AM57 °FPassing clouds.10 mph88%30.01 "HgN/A
1:00 AM59 °FPassing clouds.9 mph82%30.01 "HgN/A
12:00 AM59 °FPassing clouds.8 mph82%30.01 "HgN/A
11:00 PM
Sep 15
59 °FPassing clouds.9 mph88%30.01 "HgN/A
10:00 PM61 °FPassing clouds.12 mph83%29.98 "HgN/A
9:00 PM61 °FMostly cloudy.13 mph88%29.95 "HgN/A
8:00 PM61 °FMostly cloudy.15 mph88%29.95 "HgN/A
7:00 PM61 °FMostly cloudy.16 mph94%29.92 "HgN/A
6:00 PM63 °FMostly cloudy.23 mph88%29.89 "HgN/A
5:00 PM63 °FOvercast.17 mph88%29.86 "HgN/A
4:00 PM63 °FMore clouds than sun.24 mph88%29.83 "HgN/A
3:00 PM63 °FDrizzle. Mostly cloudy.12 mph100%29.80 "Hg1 mi
2:00 PM64 °FLight rain. Broken clouds.20 mph94%29.77 "Hg6 mi
1:00 PM70 °FPartly sunny.16 mph73%29.77 "HgN/A
12:00 PM70 °FPartly sunny.15 mph69%29.77 "HgN/A
Weather by CustomWeather, © 2014

See weather overviewHow to use our weather pages